Location: Cisewo
(53.3833°N, 14.9000°E)
Time: 11:19:35
(UTC+00:00)

CZ-4C R/B - Pass Details

Date: 18 April 2021
Orbit: 612 x 1390 km, 63.4° (Epoch: 14 May)

Event Time Altitude Azimuth Distance (km) Brightness Sun altitude
Rises 20:16:13 0° 264° (W) 3,225 5.8 -16.7°
Reaches altitude 10° 20:18:34 10° 272° (W) 2,398 5.2 -17.0°
Maximum altitude 20:23:49 40° 342° (NNW) 1,334 3.7 -17.5°
Drops below altitude 10° 20:30:11 10° 52° (NE) 2,915 5.0 -18.1°
Sets 20:33:19 0° 59° (ENE) 4,004 5.6 -18.4°
